When you browse on this site, cookies collect data to enhance your experience and personalize the content and advertising you see.
Visit our Privacy Policy to learn more. By continuing to use the site, you agree to this use of cookies and data.
  • In Hungary
  • List of Countries
  • For 7 days
  • Water Temperature
  • Weather Map
  • News
  • Weather Widgets
  • user-avatar
    Login

    Hourly Weather Buda-Koshelovo

    Today, 23 August, Friday

    Time Temperature Precipitation Wind Pressure Humidity
    00:00 +13°C° 0 mm 3 mps 757 mmHg 91%
    01:00 +13°C° 0 mm 3 mps 758 mmHg 91%
    02:00 +12°C° 0 mm 3 mps 758 mmHg 91%
    03:00 +12°C° 0 mm 3 mps 758 mmHg 91%
    04:00 +12°C° 0 mm 3 mps 758 mmHg 91%
    05:00 +13°C° 0 mm 2 mps 758 mmHg 91%
    06:00 +13°C° 0 mm 3 mps 758 mmHg 86%
    07:00 +16°C° 0 mm 3 mps 758 mmHg 80%
    08:00 +17°C° 0 mm 3 mps 758 mmHg 75%
    09:00 +18°C° 0 mm 3 mps 758 mmHg 68%
    10:00 +20°C° 0 mm 3 mps 758 mmHg 60%
    11:00 +21°C° 0 mm 3 mps 758 mmHg 53%
    12:00 +22°C° 0 mm 3 mps 758 mmHg 51%
    13:00 +22°C° 0 mm 3 mps 758 mmHg 49%
    14:00 +24°C° 0 mm 3 mps 758 mmHg 47%
    15:00 +24°C° 0 mm 3 mps 758 mmHg 51%
    16:00 +22°C° 0 mm 3 mps 757 mmHg 54%
    17:00 +23°C° 0 mm 2 mps 757 mmHg 58%
    18:00 +20°C° 0 mm 2 mps 757 mmHg 64%
    19:00 +18°C° 0 mm 2 mps 757 mmHg 69%
    20:00 +16°C° 0 mm 2 mps 757 mmHg 75%
    21:00 +15°C° 0 mm 2 mps 757 mmHg 77%
    22:00 +15°C° 0 mm 2 mps 757 mmHg 80%
    23:00 +14°C° 0 mm 2 mps 757 mmHg 83%

    Tomorrow, 24 August, Saturday

    Time Temperature Precipitation Wind Pressure Humidity
    00:00 +14°C° 0 mm 1 mps 757 mmHg 84%
    01:00 +13°C° 0 mm 1 mps 757 mmHg 85%
    02:00 +13°C° 0 mm 1 mps 757 mmHg 86%
    03:00 +12°C° 0 mm 1 mps 757 mmHg 87%
    04:00 +12°C° 0 mm 1 mps 757 mmHg 88%
    05:00 +12°C° 0 mm 1 mps 757 mmHg 88%
    06:00 +14°C° 0 mm 1 mps 757 mmHg 82%
    07:00 +16°C° 0 mm 1 mps 757 mmHg 76%
    08:00 +18°C° 0 mm 1 mps 757 mmHg 69%
    09:00 +20°C° 0 mm 1 mps 757 mmHg 64%
    10:00 +21°C° 0 mm 1 mps 757 mmHg 58%
    11:00 +23°C° 0 mm 1 mps 757 mmHg 53%
    12:00 +24°C° 0 mm 1 mps 757 mmHg 50%
    13:00 +24°C° 0 mm 1 mps 756 mmHg 48%
    14:00 +25°C° 0 mm 1 mps 756 mmHg 45%
    15:00 +25°C° 0 mm 1 mps 756 mmHg 48%
    16:00 +24°C° 0 mm 1 mps 756 mmHg 51%
    17:00 +24°C° 0 mm 1 mps 755 mmHg 54%
    18:00 +22°C° 0 mm 1 mps 755 mmHg 60%
    19:00 +20°C° 0 mm 1 mps 755 mmHg 66%
    20:00 +18°C° 0 mm 1 mps 756 mmHg 71%
    21:00 +16°C° 0 mm 1 mps 756 mmHg 74%
    22:00 +16°C° 0 mm 1 mps 756 mmHg 77%
    23:00 +15°C° 0 mm 1 mps 756 mmHg 79%

    Day after tomorrow, 25 August, Sunday

    Time Temperature Precipitation Wind Pressure Humidity
    00:00 +15°C° 0 mm 1 mps 756 mmHg 81%
    01:00 +15°C° 0 mm 1 mps 756 mmHg 82%
    02:00 +15°C° 0 mm 1 mps 756 mmHg 83%
    03:00 +14°C° 0 mm 1 mps 756 mmHg 85%
    04:00 +14°C° 0 mm 1 mps 756 mmHg 87%
    05:00 +14°C° 0 mm 1 mps 756 mmHg 89%
    06:00 +16°C° 0 mm 1 mps 756 mmHg 84%
    07:00 +17°C° 0 mm 2 mps 756 mmHg 79%
    08:00 +19°C° 0 mm 2 mps 756 mmHg 74%
    09:00 +21°C° 0 mm 2 mps 756 mmHg 70%
    10:00 +23°C° 0 mm 2 mps 756 mmHg 65%
    11:00 +25°C° 0 mm 2 mps 756 mmHg 61%
    12:00 +25°C° 0 mm 2 mps 756 mmHg 58%
    13:00 +26°C° 0 mm 3 mps 756 mmHg 56%
    14:00 +26°C° 0 mm 3 mps 756 mmHg 53%
    15:00 +26°C° 0 mm 3 mps 755 mmHg 56%
    16:00 +25°C° 0 mm 3 mps 755 mmHg 59%
    17:00 +25°C° 0 mm 3 mps 755 mmHg 62%
    18:00 +22°C° 0 mm 3 mps 755 mmHg 67%
    19:00 +20°C° 0 mm 3 mps 756 mmHg 73%
    20:00 +18°C° 0 mm 3 mps 756 mmHg 78%
    21:00 +17°C° 0 mm 3 mps 756 mmHg 80%
    22:00 +16°C° 0 mm 2 mps 756 mmHg 82%
    23:00 +16°C° 0 mm 2 mps 757 mmHg 83%

    26 August, Monday

    Time Temperature Precipitation Wind Pressure Humidity
    00:00 +15°C° 0 mm 2 mps 757 mmHg 84%
    01:00 +15°C° 0 mm 2 mps 757 mmHg 84%
    02:00 +14°C° 0 mm 2 mps 757 mmHg 85%
    03:00 +13°C° 0 mm 2 mps 757 mmHg 86%
    04:00 +13°C° 0 mm 2 mps 757 mmHg 87%
    05:00 +13°C° 0 mm 2 mps 757 mmHg 88%
    06:00 +14°C° 0 mm 2 mps 757 mmHg 83%
    07:00 +16°C° 0 mm 2 mps 757 mmHg 78%
    08:00 +18°C° 0 mm 2 mps 757 mmHg 72%
    09:00 +19°C° 0 mm 2 mps 758 mmHg 68%
    10:00 +21°C° 0 mm 2 mps 758 mmHg 63%
    11:00 +23°C° 0 mm 2 mps 758 mmHg 58%
    12:00 +24°C° 0 mm 2 mps 758 mmHg 56%
    13:00 +25°C° 0 mm 2 mps 757 mmHg 53%
    14:00 +25°C° 0 mm 2 mps 757 mmHg 50%
    15:00 +25°C° 0 mm 2 mps 757 mmHg 52%
    16:00 +25°C° 0 mm 2 mps 757 mmHg 54%
    17:00 +24°C° 0 mm 2 mps 756 mmHg 56%
    18:00 +21°C° 0 mm 2 mps 756 mmHg 60%
    19:00 +19°C° 0 mm 2 mps 756 mmHg 65%
    20:00 +17°C° 0 mm 2 mps 756 mmHg 69%
    21:00 +17°C° 0 mm 2 mps 757 mmHg 70%
    22:00 +16°C° 0 mm 2 mps 757 mmHg 72%
    23:00 +16°C° 0 mm 1 mps 757 mmHg 74%

    27 August, Tuesday

    Time Temperature Precipitation Wind Pressure Humidity
    00:00 +15°C° 0 mm 1 mps 757 mmHg 75%
    01:00 +15°C° 0 mm 1 mps 757 mmHg 77%
    02:00 +14°C° 0 mm 1 mps 757 mmHg 79%
    03:00 +14°C° 0 mm 1 mps 757 mmHg 81%
    04:00 +13°C° 0 mm 1 mps 757 mmHg 83%
    05:00 +13°C° 0 mm 1 mps 757 mmHg 85%
    06:00 +15°C° 0 mm 1 mps 757 mmHg 79%
    07:00 +18°C° 0 mm 1 mps 757 mmHg 73%
    08:00 +18°C° 0 mm 0 mps 757 mmHg 67%
    09:00 +21°C° 0 mm 1 mps 757 mmHg 62%
    10:00 +23°C° 0 mm 1 mps 757 mmHg 58%
    11:00 +24°C° 0 mm 1 mps 757 mmHg 53%
    12:00 +25°C° 0 mm 1 mps 757 mmHg 51%
    13:00 +25°C° 0 mm 1 mps 756 mmHg 50%
    14:00 +26°C° 0 mm 1 mps 756 mmHg 48%
    15:00 +25°C° 0 mm 1 mps 756 mmHg 52%
    16:00 +25°C° 0 mm 2 mps 756 mmHg 56%
    17:00 +24°C° 0 mm 2 mps 756 mmHg 60%
    18:00 +21°C° 0 mm 2 mps 756 mmHg 65%
    19:00 +20°C° 0 mm 2 mps 755 mmHg 69%
    20:00 +18°C° 0 mm 2 mps 755 mmHg 74%
    21:00 +18°C° 0 mm 1 mps 756 mmHg 76%
    22:00 +18°C° 0 mm 1 mps 756 mmHg 78%
    23:00 +16°C° 0 mm 1 mps 756 mmHg 80%

    28 August, Wednesday

    Time Temperature Precipitation Wind Pressure Humidity
    00:00 +16°C° 0 mm 1 mps 756 mmHg 82%
    01:00 +15°C° 0 mm 1 mps 756 mmHg 84%
    02:00 +15°C° 0 mm 1 mps 756 mmHg 86%
    03:00 +14°C° 0 mm 1 mps 756 mmHg 87%
    04:00 +14°C° 0 mm 1 mps 756 mmHg 88%
    05:00 +14°C° 0 mm 1 mps 756 mmHg 88%
    06:00 +16°C° 0 mm 1 mps 756 mmHg 83%
    07:00 +18°C° 0 mm 1 mps 756 mmHg 77%
    08:00 +20°C° 0 mm 1 mps 756 mmHg 72%
    09:00 +22°C° 0 mm 1 mps 756 mmHg 66%
    10:00 +23°C° 0 mm 1 mps 756 mmHg 61%
    11:00 +25°C° 0 mm 1 mps 756 mmHg 56%
    12:00 +25°C° 0 mm 1 mps 755 mmHg 53%
    13:00 +26°C° 0 mm 1 mps 755 mmHg 50%
    14:00 +26°C° 0 mm 2 mps 755 mmHg 47%
    15:00 +26°C° 0 mm 2 mps 754 mmHg 51%
    16:00 +26°C° 0 mm 2 mps 754 mmHg 54%
    17:00 +26°C° 0 mm 2 mps 754 mmHg 57%
    18:00 +24°C° 0 mm 2 mps 754 mmHg 62%
    19:00 +21°C° 0 mm 2 mps 754 mmHg 67%
    20:00 +19°C° 0 mm 2 mps 754 mmHg 72%
    21:00 +18°C° 0 mm 2 mps 754 mmHg 74%
    22:00 +18°C° 0 mm 2 mps 754 mmHg 77%
    23:00 +17°C° 0 mm 2 mps 754 mmHg 79%
    Show more